This demonstration page uses our WeatherBlox Daily Observations layout. Learn more.

Hourly Observations for September 10, 2016

Temp ( °F °C ) Dew Point ( °F °C ) Humidity (%) Winds ( mph kmh ) Pressure ( in mb ) Visibility ( mi km ) Precip ( " mm )
12:15 am 00:15 Clear 50 10.2 46 7.5 84 84 Calm 30.24 1024 10 16.09344 0 0
12:35 am 00:35 Clear 50 9.9 45 7.2 83 83 W 3 6 30.24 1024 10 16.09344 0 0
12:55 am 00:55 Clear 48 9.1 44 6.9 86 86 WNW 3 6 30.24 1024 10 16.09344 0 0
1:15 am 01:15 Clear 50 10 45 7 82 82 W 6 9 30.24 1024 10 16.09344 0 0
1:35 am 01:35 Clear 49 9.4 44 6.9 85 85 WNW 5 7 30.24 1024 10 16.09344 0 0
1:55 am 01:55 Clear 48 9 44 6.8 86 86 NW 6 9 30.24 1024 10 16.09344 0 0
2:15 am 02:15 Clear 48 8.7 44 6.7 87 87 NW 7 11 30.24 1024 10 16.09344 0 0
2:35 am 02:35 Clear 49 9.2 44 6.9 86 86 NW 8 13 30.24 1024 10 16.09344 0 0
2:55 am 02:55 Clear 48 9.1 44 6.6 85 85 WNW 6 9 30.24 1024 10 16.09344 0 0
3:15 am 03:15 Clear 47 8.6 44 6.5 87 87 WNW 7 11 30.24 1024 10 16.09344 0 0
3:35 am 03:35 Clear 47 8.6 44 6.5 87 87 WNW 6 9 30.27 1025 10 16.09344 0 0
3:55 am 03:55 Clear 47 8.5 44 6.4 87 87 WNW 6 9 30.27 1025 10 16.09344 0 0
4:15 am 04:15 Clear 47 8.3 43 6.3 87 87 WNW 7 11 30.24 1024 10 16.09344 0 0
4:35 am 04:35 Clear 47 8.1 43 6.2 88 88 WNW 6 9 30.24 1024 10 16.09344 0 0
4:55 am 04:55 Clear 46 8 43 6.1 88 88 WNW 5 7 30.24 1024 10 16.09344 0 0
5:15 am 05:15 Clear 46 8 43 6 87 87 WNW 5 7 30.3 1026 10 16.09344 0 0
5:35 am 05:35 Clear 46 8 43 6 87 87 WNW 8 13 30.3 1026 10 16.09344 0 0
5:55 am 05:55 Clear 46 8 43 6 87 87 WNW 7 11 30.3 1026 10 16.09344 0 0
6:15 am 06:15 Clear 46 8 43 6 87 87 WNW 7 11 30.3 1026 10 16.09344 0 0
6:16 am 06:16 Clear 46 8 43 6 87 87 WNW 7 11 30.3 1026 10 16.09344 0 0
6:35 am 06:35 Clear 46 8 43 6.1 88 88 WNW 6 9 30.3 1026 10 16.09344 0 0
6:55 am 06:55 Clear 46 8 43 6 87 87 WNW 6 9 30.33 1027 10 16.09344 0 0
7:15 am 07:15 Sunny 46 8 43 6 87 87 WNW 5 7 30.33 1027 10 16.09344 0 0
7:35 am 07:35 Sunny 46 7.7 43 6.1 90 90 WNW 6 9 30.33 1027 10 16.09344 0 0
7:55 am 07:55 Sunny 47 8.2 44 6.4 89 89 WNW 6 9 30.33 1027 10 16.09344 0 0
8:15 am 08:15 Sunny 48 8.9 44 6.9 87 87 NW 6 9 30.3 1026 10 16.09344 0 0
8:35 am 08:35 Sunny 50 10 46 7.6 85 85 WNW 5 7 30.3 1026 10 16.09344 0 0
8:55 am 08:55 Sunny 52 11.1 47 8.2 82 82 W 6 9 30.3 1026 10 16.09344 0 0
9:15 am 09:15 Sunny 54 12.2 48 8.7 79 79 W 6 9 30.27 1025 10 16.09344 0 0
9:35 am 09:35 Sunny 56 13.4 48 8.7 73 73 WNW 7 11 30.27 1025 10 16.09344 0 0
9:55 am 09:55 Sunny 58 14.5 47 8.6 68 68 W 8 13 30.3 1026 10 16.09344 0 0
10:15 am 10:15 Sunny 60 15.4 47 8.3 63 63 W 9 15 30.3 1026 10 16.09344 0 0
10:35 am 10:35 Sunny 61 16.1 47 8.2 60 60 WNW 8 13 30.27 1025 10 16.09344 0 0
10:55 am 10:55 Sunny 62 16.8 46 8 56 56 W 7 11 30.27 1025 10 16.09344 0 0
11:15 am 11:15 Sunny 64 17.8 47 8.3 54 54 WNW 7 11 30.27 1025 10 16.09344 0 0
11:35 am 11:35 Sunny 65 18.1 46 7.7 51 51 WNW 8 13 30.24 1024 10 16.09344 0 0
11:55 am 11:55 Sunny 66 18.9 44 6.8 45 45 WNW 7 11 30.21 1023 10 16.09344 0 0
12:15 pm 12:15 Sunny 67 19.5 42 5.7 41 41 WNW 12 19 30.21 1023 10 16.09344 0 0
12:35 pm 12:35 Sunny 68 20 44 6.4 41 41 W 13 20 30.21 1023 10 16.09344 0 0
12:55 pm 12:55 Sunny 68 20.1 41 5.2 38 38 WSW 10 17 30.18 1022 10 16.09344 0 0
1:15 pm 13:15 Sunny 68 20.2 42 5.3 38 38 W 12 19 30.18 1022 10 16.09344 0 0
1:35 pm 13:35 Sunny 69 20.8 42 5.5 37 37 W 13 20 30.18 1022 10 16.09344 0 0
1:55 pm 13:55 Sunny 70 20.9 41 5 35 35 W 10 17 30.18 1022 10 16.09344 0 0
2:15 pm 14:15 Sunny 71 21.5 40 4.5 33 33 WNW 9 15 30.18 1022 10 16.09344 0 0
2:35 pm 14:35 Sunny 71 21.7 39 4 31 31 W 8 13 30.12 1020 10 16.09344 0 0
2:55 pm 14:55 Sunny 71 21.7 39 3.8 31 31 WNW 10 17 30.12 1020 10 16.09344 0 0
3:15 pm 15:15 Sunny 73 22.5 40 4.4 31 31 W 10 17 30.12 1020 10 16.09344 0 0
3:35 pm 15:35 Sunny 73 22.5 39 4.1 30 30 W 6 9 30.12 1020 10 16.09344 0 0
3:55 pm 15:55 Sunny 73 22.7 39 4 30 30 SW 6 9 30.09 1019 10 16.09344 0 0
4:15 pm 16:15 Sunny 73 23 39 3.9 29 29 W 3 6 30.09 1019 10 16.09344 0 0
4:35 pm 16:35 Sunny 73 22.8 38 3.6 29 29 WSW 5 7 30.09 1019 10 16.09344 0 0
4:55 pm 16:55 Sunny 73 22.8 39 3.9 29 29 SW 8 13 30.09 1019 10 16.09344 0 0
5:15 pm 17:15 Sunny 73 23 38 3.3 28 28 SW 8 13 30.06 1018 10 16.09344 0 0
5:35 pm 17:35 Sunny 74 23.1 37 2.9 27 27 W 7 11 30.06 1018 10 16.09344 0 0
5:55 pm 17:55 Sunny 73 23 37 2.9 27 27 WSW 8 13 30.06 1018 10 16.09344 0 0
6:15 pm 18:15 Sunny 73 23 37 2.8 27 27 WSW 7 11 30.06 1018 10 16.09344 0 0
6:35 pm 18:35 Sunny 73 22.9 38 3.4 28 28 WSW 3 6 30.03 1017 10 16.09344 0 0
6:55 pm 18:55 Sunny 72 22.4 40 4.2 31 31 Calm 30.03 1017 10 16.09344 0 0
7:15 pm 19:15 Sunny 72 22 40 4.3 32 32 SSE 3 6 30.03 1017 10 16.09344 0 0
7:35 pm 19:35 Sunny 68 20 46 7.8 45 45 SSE 3 6 30.06 1018 10 16.09344 0 0
7:55 pm 19:55 Clear 63 17.2 48 8.8 58 58 SE 6 9 30.06 1018 10 16.09344 0 0
8:15 pm 20:15 Clear 58 14.2 48 8.9 71 71 SE 5 7 30.09 1019 10 16.09344 0 0
8:35 pm 20:35 Clear 58 14.2 48 8.9 71 71 SE 6 9 30.09 1019 10 16.09344 0 0
8:55 pm 20:55 Clear 57 13.8 47 8.5 71 71 SSE 7 11 30.09 1019 10 16.09344 0 0
9:15 pm 21:15 Clear 57 14.1 47 8.2 68 68 SSE 7 11 30.09 1019 10 16.09344 0 0
9:35 pm 21:35 Clear 56 13.2 46 7.7 70 70 SSE 7 11 30.12 1020 10 16.09344 0 0
9:55 pm 21:55 Clear 56 13.1 46 7.5 69 69 SSE 6 9 30.12 1020 10 16.09344 0 0
10:15 pm 22:15 Clear 55 12.7 46 7.5 71 71 SSE 7 11 30.12 1020 10 16.09344 0 0
10:35 pm 22:35 Clear 54 12.4 45 7.3 71 71 SSE 7 11 30.12 1020 10 16.09344 0 0
10:55 pm 22:55 Clear 53 11.5 46 7.5 77 77 SSE 6 9 30.12 1020 10 16.09344 0 0
11:15 pm 23:15 Clear 54 12 46 7.6 75 75 SE 6 9 30.12 1020 10 16.09344 0 0
11:35 pm 23:35 Clear 53 11.5 46 7.5 77 77 SSE 7 11 30.12 1020 10 16.09344 0 0
11:55 pm 23:55 Clear 54 12 46 7.7 75 75 SSE 6 9 30.12 1020 10 16.09344 0 0

Powered by AerisWeather